Wetbulb
56.90 56.94 56.85 56.91 57.25 57.32 57.60 57.71 57.64 57.62 57.94 58.15 58.06 57.80 57.19 57.17 56.47 54.94 49.64 55.03 56.97 64.24 68.81 71.73 70.11 69.17 68.92 67.74 68.42 67.29 61.05 58.14 58.84 58.79 60.75 65.17 63.71 67.72 67.35 63.92 65.41 65.58 65.38 67.49 69.92
56.83 56.75 56.54 56.72 56.75 57.09 57.20 57.33 57.36 57.51 57.53 57.71 57.65 57.50 57.33 57.30 53.30 50.91 57.49 60.49 62.69 67.03 68.92 67.02 64.50 66.83 64.95 66.04 67.08 64.97 60.09 59.04 63.04 63.24 61.97 64.20 65.22 66.39 64.31 63.41 63.50 64.39 66.87 68.62 69.70
56.27 56.41 56.24 56.32 56.47 56.69 56.80 57.05 57.18 57.38 57.40 57.46 57.46 56.74 56.96 56.32 49.09 50.45 62.77 68.53 64.01 67.74 67.54 67.91 66.03 64.56 61.71 65.19 65.15 64.01 59.78 62.95 63.63 63.74 65.23 65.20 64.94 67.31 64.70 62.78 64.53 63.73 65.42 67.40 68.57
55.93 55.69 55.97 55.98 56.09 56.27 56.54 56.68 56.77 56.78 57.09 57.32 57.21 56.80 56.69 54.35 43.72 54.28 68.01 68.04 65.62 65.71 66.25 62.86 63.25 59.29 58.36 59.17 64.49 60.24 63.47 64.86 65.02 65.84 64.61 63.55 67.20 65.52 66.04 66.19 68.20 67.15 67.17 67.61 67.27
55.61 55.89 56.04 56.06 55.72 55.94 56.15 56.13 56.25 56.29 56.80 57.32 57.39 56.29 54.77 48.46 48.16 57.62 65.71 64.64 63.91 65.18 62.20 59.24 58.86 57.68 53.93 57.71 59.73 60.90 61.72 63.57 65.14 65.29 64.40 64.69 64.98 65.77 65.95 67.74 68.18 67.60 67.07 67.06 66.66
55.79 55.99 55.83 55.85 56.05 56.20 56.06 55.51 55.57 56.04 57.15 58.14 57.59 56.99 52.26 43.96 53.95 58.48 62.61 61.92 62.83 65.05 60.65 60.89 58.56 58.68 55.74 56.94 56.20 58.79 59.49 62.03 62.19 62.66 63.65 61.73 62.92 66.05 66.50 67.30 66.43 66.17 66.28 67.26 66.99
55.59 55.59 55.41 55.47 55.75 55.65 55.23 55.11 55.28 56.43 58.02 59.35 57.90 55.68 50.48 48.45 57.24 58.85 59.23 61.16 63.37 61.80 59.35 59.58 61.27 57.29 55.97 52.40 57.56 57.27 54.44 55.71 56.20 58.15 60.85 63.08 61.03 62.90 66.53 66.73 65.33 65.38 65.99 67.20 67.50
55.28 55.37 55.25 55.37 55.53 55.17 54.75 54.40 55.56 57.47 58.69 58.33 59.25 55.86 49.79 57.31 59.30 58.46 57.50 60.36 61.78 62.06 58.63 57.63 58.04 56.56 53.14 54.04 51.75 50.31 50.75 47.51 54.31 57.06 60.87 62.42 57.07 64.11 66.35 65.58 64.58 65.05 65.30 66.32 67.47
54.99 54.95 54.89 54.81 54.63 54.48 54.01 55.00 58.21 58.84 58.88 59.17 56.50 53.57 45.73 58.47 50.26 51.56 55.64 53.10 59.75 59.78 57.87 57.84 56.00 52.67 51.68 49.52 48.23 48.89 44.39 46.15 49.44 58.01 60.84 61.03 57.78 64.27 66.08 65.54 64.50 64.74 65.08 65.50 66.98
54.51 54.43 54.47 54.30 53.95 53.45 53.58 55.80 60.44 59.42 58.76 58.66 56.40 49.18 49.16 45.99 49.10 50.43 52.32 59.23 56.56 55.09 53.02 52.16 52.66 48.48 48.37 47.57 41.28 44.80 44.95 48.23 47.56 55.67 59.40 59.46 59.11 63.36 64.79 64.67 64.21 64.73 65.01 65.21 65.87
54.55 54.38 54.13 53.87 53.27 52.70 51.97 49.94 47.72 46.98 47.72 43.81 44.15 43.93 46.37 48.85 49.80 48.86 51.40 56.55 55.56 51.78 46.29 49.91 45.19 43.49 45.80 47.91 48.06 48.04 48.04 46.95 52.05 55.10 57.52 58.09 59.05 62.37 63.85 64.37 63.77 64.26 64.69 65.04 65.76
54.38 54.15 53.91 53.19 52.93 52.55 50.36 48.13 47.49 47.72 42.81 45.25 44.53 44.77 46.85 47.29 45.47 47.29 52.59 52.61 51.97 47.84 48.47 45.42 43.01 47.14 48.06 46.93 46.49 46.67 46.79 47.76 51.43 55.06 57.26 57.87 57.79 61.14 63.58 63.66 64.59 64.16 64.39 64.31 65.86
54.21 53.74 53.07 52.50 52.32 50.53 48.71 48.35 50.78 47.57 41.74 43.23 45.17 45.17 45.54 46.74 44.04 44.68 48.65 47.56 49.97 47.92 47.76 45.59 46.72 48.68 46.20 45.30 44.62 45.45 44.83 46.32 48.27 51.05 55.52 56.61 55.09 58.80 63.40 64.65 64.72 65.42 65.63 64.13 65.78
53.97 53.52 52.53 51.47 49.57 47.83 47.29 49.33 50.27 48.26 39.48 39.93 42.51 44.77 46.52 45.43 42.56 47.81 51.44 47.27 46.37 47.46 48.30 48.08 51.22 46.98 46.05 44.61 45.69 42.66 47.52 47.12 47.18 47.49 45.93 55.80 48.74 56.53 61.08 62.21 63.80 64.46 64.51 64.93 65.63
53.84 53.02 51.92 50.85 48.79 47.95 49.59 50.74 47.47 44.82 31.26 41.02 41.84 47.97 46.11 43.32 43.78 44.34 52.04 48.71 44.16 44.63 46.22 47.06 47.87 47.24 45.22 45.38 46.98 44.59 47.44 46.22 46.74 46.33 47.15 49.02 49.96 54.14 59.60 59.97 62.48 64.77 65.64 65.73 66.50
53.21 52.19 51.60 49.90 48.44 50.62 50.80 48.95 46.49 37.86 29.89 37.72 41.61 40.64 40.93 41.99 42.60 44.86 47.11 49.96 49.09 45.70 46.55 46.44 49.00 50.37 49.96 49.52 47.98 48.59 47.54 46.74 46.33 44.71 39.36 46.69 48.21 51.07 55.79 59.44 62.49 65.20 66.44 67.09 67.20
51.84 50.90 50.08 50.74 47.46 51.85 49.78 46.69 37.51 32.30 39.63 35.82 37.15 39.77 38.62 38.23 39.58 41.20 42.42 41.95 41.34 39.49 40.08 43.49 45.62 48.66 50.13 48.16 49.25 47.28 44.45 39.55 38.22 38.18 37.27 46.10 45.72 49.06 56.20 60.94 62.56 64.31 66.16 67.50 68.33
50.60 48.28 48.47 51.07 51.72 49.63 47.79 42.98 31.64 35.82 35.37 39.13 38.60 38.48 36.21 38.08 38.09 38.60 39.66 38.71 41.99 41.30 40.82 39.01 38.16 45.07 46.28 47.51 46.38 46.60 46.15 40.75 35.32 37.18 39.75 45.69 43.25 48.60 55.57 57.36 63.20 65.29 66.78 68.04 68.40
49.37 46.86 48.97 50.23 50.13 48.45 46.51 35.89 35.06 36.14 38.20 36.88 37.70 34.67 34.97 36.90 37.68 36.90 38.21 38.59 40.56 40.63 37.40 38.40 38.39 44.09 45.88 46.75 47.92 46.79 43.79 48.49 43.30 44.00 41.98 43.88 46.96 52.05 55.46 56.69 58.06 60.31 64.49 66.51 67.91
46.03 43.86 47.52 50.24 47.52 47.23 42.93 35.39 36.66 40.41 40.95 38.80 33.80 36.58 33.06 34.66 35.03 35.55 35.31 40.95 39.77 41.43 43.10 38.46 32.62 39.98 43.84 46.47 48.35 47.38 50.70 43.20 44.17 36.97 36.77 42.68 44.39 45.13 51.19 54.16 57.29 58.40 61.04 64.52 67.28
44.80 44.57 48.70 49.20 48.91 44.86 37.55 35.63 38.03 42.18 42.42 37.96 36.02 34.95 35.37 34.36 35.35 34.76 35.10 40.01 42.15 40.76 42.41 40.02 36.46 36.05 40.18 42.13 44.61 44.86 44.53 47.02 47.52 44.95 39.91 38.89 43.59 52.75 52.72 55.94 56.60 58.35 60.37 63.38 65.20
43.27 39.73 49.07 48.16 41.79 38.88 36.76 36.65 38.92 40.02 42.84 40.76 39.27 38.22 35.96 36.11 34.54 34.71 34.93 38.22 43.40 42.84 37.44 40.66 37.77 32.66 35.19 41.04 45.25 43.96 43.19 46.09 42.72 42.60 45.80 44.28 45.01 53.72 55.90 56.46 58.09 58.96 60.84 62.99 65.62
40.00 40.60 48.37 48.46 36.05 35.69 36.83 36.73 38.32 38.55 39.23 39.12 37.85 38.49 38.39 35.58 32.28 35.74 36.98 42.40 43.33 41.90 39.33 41.33 35.39 30.43 34.06 40.06 43.04 40.56 43.38 43.80 43.89 45.77 43.91 42.28 44.20 55.49 56.42 55.82 57.08 57.74 59.58 62.46 65.37
42.06 38.79 42.85 42.83 40.80 37.86 34.95 34.95 35.48 40.52 39.53 40.81 39.34 40.47 37.55 35.61 37.49 33.96 36.02 40.92 43.18 42.48 44.80 43.59 36.52 33.48 30.03 33.74 36.36 35.43 38.23 41.02 39.97 40.90 43.37 45.36 48.53 52.91 54.44 55.65 57.48 58.07 57.79 58.25 63.90
41.31 38.34 39.67 36.48 38.44 37.67 37.57 36.06 33.84 34.37 39.76 40.00 38.26 37.78 36.07 33.42 34.15 33.09 36.07 38.45 40.49 42.82 43.08 40.52 32.87 35.00 35.71 36.09 35.98 35.42 35.65 37.98 38.06 40.53 40.49 46.44 47.92 52.33 55.48 56.51 59.07 60.02 58.15 59.33 59.49
41.67 40.93 41.72 38.64 39.44 37.63 36.74 36.03 34.44 36.31 36.25 35.21 34.75 37.07 37.19 32.94 34.85 32.56 35.09 36.11 36.69 40.83 40.27 39.81 33.23 35.10 32.73 36.23 36.70 34.13 37.08 38.53 39.77 40.92 41.63 43.82 45.88 53.01 55.50 60.23 57.85 59.72 60.93 61.78 63.16
44.83 45.64 41.87 38.88 38.50 36.87 36.12 36.45 36.66 39.20 38.52 39.28 38.15 36.56 35.17 37.05 39.98 40.50 40.78 40.80 40.12 37.94 38.04 36.22 33.99 32.41 28.78 35.41 35.75 32.89 37.70 39.83 41.72 44.70 44.29 43.07 49.48 54.06 54.82 57.75 56.26 56.67 57.88 59.10 61.84
MSLP
1018.81 1018.30 1017.78 1017.22 1016.73 1016.21 1015.59 1015.08 1014.69 1014.39 1013.99 1013.61 1013.37 1013.42 1013.34 1013.21 1013.15 1013.01 1011.86 1009.47 1009.66 1009.61 1009.87 1010.06 1010.39 1010.60 1010.79 1010.78 1010.64 1010.50 1009.97 1008.56 1007.93 1007.39 1007.41 1007.86 1008.20 1009.01 1009.62 1009.97 1010.37 1011.05 1011.29 1011.96 1013.59
1018.72 1018.22 1017.71 1017.09 1016.56 1016.03 1015.55 1014.99 1014.38 1013.91 1013.64 1013.35 1013.12 1013.04 1013.01 1012.90 1012.76 1011.69 1009.37 1009.31 1009.65 1009.49 1009.39 1009.45 1009.81 1010.29 1010.58 1010.55 1010.27 1009.88 1009.44 1008.03 1007.63 1007.12 1007.00 1007.48 1007.69 1008.55 1009.23 1009.89 1010.40 1011.04 1011.64 1012.68 1013.54
1018.60 1018.06 1017.50 1016.91 1016.31 1015.75 1015.23 1014.79 1014.17 1013.63 1013.12 1012.97 1012.81 1012.79 1012.72 1012.69 1011.97 1008.99 1008.49 1008.19 1009.09 1009.38 1009.24 1009.58 1009.79 1010.03 1010.11 1010.32 1009.94 1009.41 1008.76 1007.96 1007.36 1007.12 1006.98 1007.13 1007.52 1008.15 1008.63 1009.12 1009.57 1010.41 1011.71 1012.80 1013.31
1018.52 1017.91 1017.24 1016.58 1015.91 1015.41 1014.85 1014.46 1013.91 1013.41 1012.92 1012.60 1012.60 1012.61 1012.57 1012.43 1010.80 1008.63 1007.79 1007.18 1008.30 1008.97 1009.25 1009.43 1009.74 1009.70 1009.77 1009.67 1009.53 1009.31 1008.69 1007.94 1007.44 1007.06 1006.91 1006.99 1007.18 1007.67 1008.14 1008.02 1008.74 1010.09 1011.10 1012.23 1013.21
1018.44 1017.81 1017.11 1016.33 1015.62 1014.85 1014.40 1014.03 1013.49 1012.98 1012.67 1012.38 1012.47 1012.59 1012.56 1011.48 1009.59 1008.82 1008.07 1007.93 1008.27 1008.59 1008.55 1008.78 1009.15 1009.26 1009.13 1009.21 1009.27 1008.97 1008.52 1007.73 1007.27 1006.95 1006.66 1006.73 1006.99 1007.22 1007.77 1008.33 1009.20 1010.41 1011.44 1012.13 1013.19
1018.36 1017.65 1016.90 1016.17 1015.38 1014.53 1013.94 1013.45 1013.09 1012.56 1012.20 1012.05 1012.22 1012.47 1012.06 1010.40 1009.04 1009.01 1008.65 1008.61 1008.30 1008.36 1008.47 1008.65 1008.66 1008.91 1008.97 1008.95 1008.75 1008.15 1008.12 1007.61 1007.08 1006.68 1006.48 1006.52 1006.61 1007.23 1007.85 1008.74 1009.81 1010.68 1011.37 1012.15 1012.82
1018.37 1017.45 1016.60 1015.83 1015.09 1014.24 1013.65 1012.99 1012.50 1012.10 1011.79 1011.71 1012.14 1012.19 1011.43 1009.84 1009.06 1009.02 1008.89 1008.70 1008.82 1008.62 1008.39 1008.67 1008.65 1008.62 1008.67 1008.58 1008.49 1008.23 1007.92 1007.55 1006.81 1006.30 1006.10 1005.99 1006.49 1006.76 1007.97 1008.87 1009.80 1010.72 1011.55 1012.26 1012.85
1018.35 1017.50 1016.45 1015.46 1014.64 1013.96 1013.29 1012.61 1012.15 1011.76 1011.92 1012.01 1012.14 1011.89 1010.17 1009.13 1009.07 1008.84 1008.76 1008.77 1008.98 1009.03 1008.78 1008.91 1008.80 1008.77 1008.69 1008.47 1008.15 1007.92 1007.85 1006.81 1005.75 1005.75 1005.47 1005.72 1005.47 1006.81 1008.03 1008.79 1009.76 1010.67 1011.44 1012.02 1012.54
1018.19 1017.37 1016.34 1015.42 1014.43 1013.73 1012.94 1012.29 1011.99 1011.90 1012.08 1012.20 1012.05 1011.41 1009.60 1008.65 1008.69 1008.56 1008.51 1008.37 1008.81 1009.27 1009.12 1008.93 1008.89 1008.84 1008.77 1008.26 1007.76 1007.62 1006.47 1006.07 1005.41 1005.21 1004.77 1005.23 1005.33 1006.62 1007.98 1008.70 1009.55 1010.43 1011.10 1011.72 1012.25
1018.19 1017.28 1016.25 1015.42 1014.42 1013.65 1012.99 1012.45 1012.22 1012.07 1012.17 1012.10 1011.81 1011.25 1009.33 1009.22 1008.95 1008.51 1008.33 1008.39 1008.56 1009.09 1009.24 1008.91 1008.81 1008.57 1008.40 1007.82 1006.32 1006.46 1006.18 1005.81 1004.97 1004.72 1004.76 1004.82 1005.15 1006.65 1007.68 1008.45 1009.11 1009.91 1010.75 1011.31 1011.73
1017.85 1017.03 1016.00 1015.12 1014.25 1013.42 1013.05 1012.62 1012.51 1012.14 1011.68 1011.85 1011.60 1010.87 1009.81 1009.32 1009.03 1008.29 1008.31 1008.26 1008.46 1008.90 1008.54 1008.71 1008.26 1006.87 1006.70 1007.48 1007.36 1006.99 1006.34 1005.49 1005.01 1004.63 1004.59 1004.18 1004.76 1005.99 1007.23 1008.17 1008.81 1009.49 1010.18 1010.61 1011.05
1017.75 1017.01 1015.93 1014.96 1013.99 1013.35 1013.21 1013.01 1013.93 1014.22 1012.76 1011.58 1011.24 1010.62 1009.97 1009.70 1008.99 1008.44 1008.11 1008.17 1008.20 1008.17 1008.67 1008.85 1007.15 1006.99 1007.76 1008.05 1007.84 1007.35 1006.62 1005.77 1005.19 1004.85 1004.86 1004.33 1004.01 1005.21 1006.36 1006.71 1007.39 1008.26 1009.09 1009.83 1010.61
1017.37 1016.37 1015.38 1014.44 1013.68 1013.31 1013.67 1013.80 1014.03 1013.95 1013.13 1011.38 1010.63 1009.97 1009.65 1009.67 1009.36 1009.13 1009.01 1008.52 1008.03 1008.05 1007.92 1007.36 1007.07 1007.31 1007.57 1007.65 1007.57 1007.07 1006.51 1006.30 1005.68 1005.32 1004.83 1004.47 1004.11 1004.78 1005.55 1006.43 1007.22 1007.92 1008.73 1009.53 1009.69
1017.10 1016.25 1015.53 1014.45 1013.74 1014.31 1013.91 1013.95 1013.86 1013.75 1012.46 1011.28 1010.47 1010.06 1009.61 1009.67 1009.59 1009.53 1009.55 1009.17 1008.37 1007.87 1007.82 1007.42 1006.91 1007.03 1006.81 1006.65 1007.11 1006.61 1006.74 1006.83 1006.49 1006.01 1004.57 1004.31 1003.03 1003.49 1004.22 1005.19 1005.95 1006.71 1007.53 1008.05 1008.81
1017.06 1016.37 1015.82 1015.19 1014.83 1014.28 1014.36 1013.95 1013.65 1013.29 1011.94 1011.15 1010.50 1010.35 1010.27 1010.18 1010.42 1009.81 1010.10 1009.54 1008.73 1008.28 1008.19 1006.73 1006.39 1006.39 1006.36 1006.27 1006.73 1006.00 1006.68 1006.60 1006.55 1006.23 1005.57 1004.05 1003.24 1002.01 1003.11 1003.69 1004.32 1005.12 1005.78 1006.64 1007.37
1017.13 1016.41 1015.94 1015.23 1015.02 1013.99 1014.06 1013.55 1013.06 1012.47 1011.34 1011.03 1010.85 1010.83 1010.75 1011.03 1010.98 1010.78 1010.57 1010.51 1010.22 1009.23 1008.40 1007.50 1006.86 1005.96 1005.47 1006.00 1006.35 1006.48 1006.39 1006.40 1006.39 1006.10 1004.58 1003.57 1002.84 1000.81 1001.34 1001.69 1002.60 1003.42 1004.41 1005.24 1005.95
1016.85 1016.16 1015.69 1015.19 1014.54 1013.67 1013.63 1013.08 1012.73 1011.91 1011.62 1011.60 1011.44 1011.55 1011.65 1011.63 1011.51 1011.63 1011.58 1011.27 1011.05 1010.05 1008.95 1008.13 1006.91 1006.16 1005.79 1005.68 1006.02 1006.36 1005.95 1005.79 1005.90 1005.02 1002.17 1002.75 1002.39 1000.89 1000.39 1000.96 1000.94 1001.57 1002.55 1003.67 1004.64
1016.57 1015.73 1015.33 1014.69 1014.28 1013.98 1013.19 1012.93 1012.46 1012.15 1012.07 1012.18 1012.11 1012.24 1012.21 1012.32 1012.23 1012.26 1012.29 1012.13 1012.09 1011.57 1010.37 1008.89 1007.57 1007.09 1007.37 1005.90 1005.33 1005.37 1005.19 1003.97 1003.53 1002.78 1002.11 1002.28 999.77 999.26 1000.16 1000.26 1000.57 1000.69 1001.23 1002.53 1003.56
1016.27 1015.63 1014.97 1014.26 1013.96 1013.83 1013.08 1012.91 1012.65 1012.84 1012.98 1012.70 1012.65 1012.57 1012.75 1012.85 1012.87 1012.65 1012.57 1012.74 1012.97 1012.73 1011.65 1010.57 1009.02 1008.47 1007.82 1007.38 1006.50 1005.03 1004.35 1003.87 1003.45 1003.35 1001.96 1000.22 1000.03 999.54 999.25 999.13 999.20 1000.03 1000.61 1001.07 1001.90
1016.56 1015.93 1014.63 1014.20 1013.92 1013.45 1013.18 1013.65 1013.85 1013.91 1013.79 1013.43 1013.01 1012.90 1012.81 1013.11 1013.20 1013.11 1012.92 1013.07 1013.25 1013.49 1013.35 1012.56 1010.83 1009.33 1008.59 1007.76 1006.51 1005.63 1004.33 1004.27 1003.83 1002.37 1000.99 999.59 998.79 997.30 997.59 998.04 998.19 998.47 999.23 999.93 1000.59
1016.49 1015.34 1014.51 1014.09 1013.67 1013.61 1014.33 1015.22 1015.13 1014.77 1014.57 1014.10 1013.59 1013.42 1013.42 1013.53 1013.53 1013.37 1012.99 1013.40 1013.59 1013.85 1013.84 1013.62 1012.70 1010.00 1009.18 1007.65 1006.26 1006.31 1005.22 1004.22 1003.34 1002.34 1000.49 999.62 997.80 997.21 996.95 996.86 997.11 997.63 998.14 998.55 999.18
1017.11 1015.77 1015.02 1014.15 1014.52 1016.16 1016.42 1016.99 1016.83 1015.61 1015.21 1014.72 1014.31 1013.95 1013.91 1014.01 1013.97 1013.80 1013.27 1013.06 1013.54 1013.98 1014.09 1014.27 1013.68 1011.57 1009.68 1008.46 1008.29 1007.87 1006.71 1005.14 1003.66 1002.41 1001.32 999.91 997.83 996.93 996.71 996.38 996.45 996.66 997.09 997.51 997.99
1018.21 1017.43 1015.87 1014.77 1016.16 1017.35 1018.06 1017.75 1017.39 1016.56 1016.05 1015.53 1015.06 1014.73 1014.82 1014.71 1014.82 1014.26 1013.93 1013.93 1013.88 1013.92 1014.29 1014.77 1014.35 1012.46 1009.51 1008.81 1009.07 1008.63 1007.73 1007.14 1005.95 1003.72 1001.35 999.96 998.71 997.24 997.19 996.95 996.81 996.94 997.07 997.42 997.63
1018.67 1017.82 1017.21 1017.27 1018.36 1018.35 1018.61 1018.38 1017.88 1017.45 1016.89 1016.69 1016.00 1015.68 1015.59 1015.48 1015.40 1015.09 1014.51 1014.47 1014.39 1014.37 1014.79 1015.11 1014.80 1013.40 1011.29 1010.26 1010.82 1010.17 1009.32 1008.59 1007.49 1004.41 1002.25 1000.33 999.08 997.78 997.23 996.85 996.83 997.17 997.39 997.60 997.66
1019.34 1019.55 1019.59 1018.77 1018.82 1019.23 1019.33 1019.15 1018.72 1018.20 1017.54 1017.30 1016.56 1016.50 1016.63 1016.02 1015.70 1015.60 1015.38 1015.01 1014.94 1014.93 1015.25 1015.50 1014.90 1014.28 1013.02 1011.95 1011.30 1010.55 1009.69 1008.95 1007.79 1006.14 1003.57 1001.09 999.87 998.35 997.74 997.59 997.16 997.45 997.98 998.04 998.09
1019.83 1020.02 1019.99 1019.91 1019.85 1019.66 1019.67 1019.46 1019.08 1018.43 1018.35 1017.62 1017.48 1017.27 1017.18 1017.00 1016.59 1015.94 1015.56 1015.27 1014.89 1015.40 1015.53 1015.97 1015.06 1014.59 1013.17 1011.85 1010.83 1009.49 1008.70 1008.22 1007.52 1005.99 1004.90 1003.09 1000.89 999.87 999.28 998.95 998.66 998.78 998.77 998.50 998.44
1020.38 1020.38 1020.37 1020.10 1020.00 1019.93 1019.87 1019.62 1019.07 1018.50 1018.08 1017.94 1017.80 1017.44 1017.12 1016.73 1016.55 1016.35 1016.07 1015.59 1015.32 1015.22 1015.45 1015.82 1015.27 1014.36 1012.46 1011.57 1010.76 1008.18 1006.26 1006.19 1006.24 1005.40 1004.65 1002.83 1001.18 1000.83 999.91 999.87 1000.07 1000.12 1000.01 999.53 999.13
Wind_Speed
19 19 19 20 19 19 20 21 20 18 16 16 15 11 10 9 8 3 7 6 9 9 12 18 13 14 8 8 3 4 3 3 2 1 5 7 5 4 6 14 5 9 7 18 24
20 20 20 21 20 20 19 20 20 19 17 16 14 11 8 7 4 9 11 9 12 14 21 22 18 19 6 8 5 6 3 3 1 1 2 9 8 10 8 12 7 7 14 23 25
22 22 22 22 22 22 21 19 19 19 18 15 13 8 6 3 4 2 6 14 17 16 15 14 18 13 8 6 7 6 5 5 3 4 2 7 8 7 12 11 11 20 23 26 25
23 24 24 25 25 23 22 20 18 17 16 15 10 6 2 2 1 8 20 4 21 18 18 16 16 12 9 9 11 5 9 6 2 2 2 3 7 7 13 1 13 20 28 28 26
24 24 24 25 27 26 24 20 18 17 14 12 6 4 2 2 4 10 10 12 17 19 21 17 19 12 12 10 8 15 6 6 11 10 6 3 9 5 13 4 16 21 27 28 24
24 24 24 24 25 26 24 21 17 16 12 8 5 5 2 1 1 8 4 7 13 16 19 15 15 10 12 7 12 7 17 8 6 7 7 7 5 7 4 14 19 24 27 26 25
24 25 26 26 25 27 25 22 18 13 7 7 10 4 1 1 3 8 3 4 7 7 19 7 9 14 7 6 8 12 3 6 10 11 6 4 7 11 13 17 22 23 23 24 24
24 24 26 27 27 26 24 22 14 2 7 10 10 2 1 3 4 6 4 2 6 8 5 4 5 6 3 2 3 7 6 9 3 14 6 8 5 6 17 20 21 22 22 23 25
24 25 27 27 27 25 25 17 4 9 9 8 1 2 5 4 5 5 3 2 8 10 1 8 4 4 5 4 6 5 8 17 7 12 6 13 4 9 15 17 19 20 22 22 23
23 25 26 26 27 23 22 2 9 7 4 5 3 3 4 7 7 8 1 10 5 14 9 7 9 8 8 12 13 10 13 7 16 10 14 13 11 10 14 15 19 20 20 22 23
25 26 27 27 26 24 9 3 4 1 5 4 4 0 6 10 5 13 4 7 12 11 11 8 13 22 22 16 13 6 8 11 6 9 14 17 16 12 15 14 17 19 20 22 23
25 25 26 26 22 19 4 6 5 4 6 2 6 5 6 3 4 17 8 3 7 10 10 6 19 19 12 12 14 15 8 11 9 7 8 14 20 11 17 19 20 22 22 22 22
26 27 29 28 20 3 4 7 5 3 4 3 2 4 4 2 4 12 10 1 6 10 17 15 4 14 14 16 15 19 21 12 7 3 11 9 16 13 15 14 16 17 18 17 23
26 28 28 30 1 3 2 4 8 6 1 3 1 5 7 5 3 7 9 3 4 10 12 14 18 9 16 22 19 20 17 16 15 8 11 16 13 15 14 19 20 20 21 22 24
26 27 24 11 4 2 8 10 3 4 4 4 3 3 7 5 7 8 8 3 2 3 4 8 10 18 15 15 18 16 9 18 18 14 11 12 12 15 12 17 21 22 24 24 24
26 26 22 2 2 4 8 5 3 3 4 3 3 3 2 6 4 7 7 5 2 3 3 7 6 8 18 13 18 9 5 11 12 14 19 21 14 16 14 18 18 21 22 24 25
26 25 10 2 6 13 8 1 2 5 2 2 2 2 2 5 4 7 5 8 4 4 3 1 6 6 7 11 18 17 14 7 7 10 17 18 19 15 9 14 18 21 24 25 24
26 13 1 3 9 8 2 1 6 1 2 3 2 2 1 3 2 5 2 2 6 2 2 4 9 3 5 10 9 22 20 9 13 9 12 17 15 16 23 20 10 14 16 20 23
16 4 1 7 9 3 1 3 2 1 2 2 1 3 3 1 4 3 1 1 2 5 3 2 5 2 1 4 4 14 24 22 11 2 10 13 17 15 13 16 22 16 14 19 24
5 3 5 16 5 0 2 1 0 3 5 2 4 4 6 5 3 2 3 4 4 1 4 1 6 2 3 5 13 11 11 19 13 17 14 7 19 14 23 19 15 21 20 19 21
2 1 10 16 2 4 3 4 3 4 7 3 4 5 5 4 5 4 2 5 5 4 2 1 4 2 5 5 7 8 11 10 14 17 11 14 10 10 17 20 21 17 19 21 22
4 2 11 10 6 3 3 8 6 5 4 5 4 9 7 6 6 7 8 6 9 8 3 2 3 6 8 12 7 9 7 13 14 19 18 16 8 3 11 19 21 21 18 21 22
3 3 5 6 5 4 5 5 3 5 6 5 5 3 1 4 5 9 5 2 10 7 6 6 3 5 6 6 6 4 2 6 11 13 18 17 16 18 13 9 9 10 12 13 17
2 3 4 5 2 4 6 5 9 8 5 6 8 8 7 12 10 4 6 5 4 3 8 6 4 9 9 11 11 10 11 12 8 13 17 17 16 20 21 14 9 8 8 9 11
3 3 3 5 5 6 1 2 9 5 3 6 4 4 4 7 10 10 8 3 4 5 6 5 7 8 13 16 14 18 22 20 16 15 12 17 17 14 19 19 20 12 5 5 5
3 2 1 3 5 5 2 1 5 5 4 5 6 8 7 4 4 3 6 10 10 6 7 5 4 7 15 14 16 23 23 22 21 22 16 19 17 11 12 8 4 8 8 9 7
1 1 1 2 3 3 3 3 8 13 3 7 10 5 7 7 9 10 10 13 10 5 10 7 4 5 11 10 18 15 25 24 19 12 19 20 13 8 10 4 6 8 9 11 11
Wind_Direction
351 347 344 341 337 335 332 331 328 324 317 311 313 316 315 314 309 211 234 229 189 162 162 143 154 148 158 185 230 141 245 251 210 168 135 164 151 98 115 140 159 173 152 140 155
348 346 343 339 335 334 333 330 326 321 315 311 307 311 314 322 278 244 247 239 213 170 161 161 158 154 171 189 210 213 237 226 304 303 131 180 188 137 145 150 128 127 122 142 156
347 345 343 337 336 335 333 331 325 320 314 311 306 305 305 318 269 186 294 285 200 188 172 162 151 158 164 179 196 194 232 237 32 81 104 144 181 161 153 188 183 161 152 157 161
346 344 341 338 336 334 331 332 325 316 310 305 303 302 316 221 288 355 324 236 174 174 157 158 167 167 171 187 204 234 244 247 295 131 41 187 160 184 188 283 174 166 162 159 169
343 341 338 335 333 331 331 331 324 315 311 296 288 252 266 234 266 343 7 137 157 170 169 172 174 176 186 201 188 224 248 268 251 284 297 206 195 196 202 99 146 155 162 166 169
340 339 337 334 332 329 331 329 324 318 311 269 198 163 238 246 302 352 30 147 167 172 171 172 186 181 190 198 213 223 227 247 293 278 270 269 253 199 134 135 146 160 168 171 174
341 338 335 334 334 330 332 326 322 319 316 154 159 169 184 24 342 336 269 183 190 172 174 165 170 189 153 188 216 228 286 233 246 252 232 207 217 221 148 151 156 167 173 176 178
340 338 334 335 335 333 331 324 321 37 113 144 165 278 274 232 301 304 172 153 188 198 181 170 139 196 234 290 165 209 222 247 183 211 210 193 254 170 158 161 165 169 177 181 185
340 339 335 337 334 335 332 331 97 109 127 158 165 316 29 322 345 339 238 167 147 184 253 194 200 211 200 204 197 179 208 218 244 200 187 194 249 163 172 175 169 176 180 186 188
340 337 333 336 331 334 333 288 115 114 137 206 227 208 13 331 327 330 310 152 133 158 189 161 189 209 207 205 206 194 216 210 217 191 215 207 229 158 176 181 179 179 184 191 194
340 337 333 333 330 329 341 267 336 34 46 358 336 245 309 326 269 18 9 138 112 154 180 180 196 209 207 212 229 259 236 242 217 216 202 231 224 199 180 191 186 187 189 195 198
337 334 332 332 328 324 295 74 76 323 313 307 264 259 260 311 337 8 14 196 158 176 167 179 222 222 225 213 216 231 247 233 249 234 220 218 243 208 190 200 194 192 192 197 196
338 339 339 336 325 30 29 87 32 195 246 301 286 332 10 307 44 6 0 304 205 184 195 211 248 198 201 204 213 224 234 229 248 335 226 247 240 213 206 212 204 204 203 196 198
341 340 341 329 121 356 55 355 321 192 286 135 110 34 340 337 110 0 12 302 192 221 190 227 234 207 208 213 210 229 226 244 252 275 226 213 240 211 191 204 206 201 199 199 201
340 337 339 356 329 45 332 324 142 213 276 59 67 0 355 50 334 13 25 338 232 164 226 195 203 207 218 217 206 233 222 225 237 249 272 242 239 233 194 205 208 208 205 203 200
335 330 332 227 244 313 326 306 211 220 224 120 62 21 28 25 23 323 360 26 348 274 189 252 307 226 224 212 205 210 162 214 233 239 245 232 233 226 201 213 208 212 211 207 202
331 323 313 273 337 329 319 203 216 226 79 111 60 19 57 17 25 14 25 37 8 229 214 311 220 222 211 200 200 205 209 206 209 209 239 221 237 234 223 220 216 206 210 207 206
330 332 293 242 319 316 289 222 228 77 54 38 35 79 265 3 44 10 40 21 53 350 53 243 200 207 29 230 216 207 209 206 211 218 232 216 234 221 227 239 239 236 216 205 205
329 348 294 340 321 255 173 231 339 130 341 315 250 224 184 294 313 316 107 204 351 359 313 263 245 344 236 323 239 200 214 218 262 236 255 214 234 264 228 236 228 222 214 202 205
340 322 3 341 340 167 158 98 0 28 352 278 247 219 209 191 240 254 226 162 162 310 327 106 285 41 321 291 230 243 208 207 222 241 234 206 226 233 207 223 222 224 214 210 208
7 72 353 344 266 48 58 22 325 339 339 276 265 261 241 227 227 207 222 153 177 144 75 176 277 275 296 199 240 191 218 218 234 233 237 239 227 237 229 212 217 217 218 218 212
347 74 343 330 49 33 36 340 334 327 2 293 277 264 245 211 221 225 241 239 168 162 185 120 270 275 271 274 288 302 288 269 227 223 231 260 246 197 229 220 216 224 217 217 217
17 311 332 352 64 38 352 342 301 316 333 319 305 345 1 233 242 236 241 169 163 169 166 166 195 279 249 189 140 225 231 263 277 272 244 226 226 265 273 246 231 235 240 230 223
338 9 39 52 39 36 17 3 350 325 317 342 291 288 255 241 227 277 243 181 168 176 132 161 194 263 278 325 327 284 296 301 300 248 228 241 250 240 248 265 257 256 266 268 225
5 60 28 9 43 2 200 295 331 323 321 331 281 291 316 244 219 216 238 172 181 201 167 196 235 225 268 284 293 278 273 268 262 262 256 230 240 260 244 252 262 298 253 253 220
27 5 58 344 339 326 29 106 292 307 242 298 250 317 288 235 230 222 192 223 219 176 179 172 231 232 273 283 288 270 259 254 251 255 252 266 261 268 285 291 292 323 316 294 279
67 57 140 303 338 319 3 298 296 328 260 277 298 310 270 261 252 241 253 268 264 222 195 194 230 265 267 323 325 263 244 239 239 239 222 221 224 308 288 1 17 350 330 311 301